When you browse on this site, cookies collect data to enhance your experience and personalize the content and advertising you see.
Visit our Privacy Policy to learn more. By continuing to use the site, you agree to this use of cookies and data.
  • în România
  • Lista ţărilor
  • Pe 7 zile
  • Temperatura apei
  • Hartă satelitară
  • Meteo pe hartă
  • Widget-uri
  • user-avatar
    Intrare

    Meteo pe oră la Sankt Polten

    Astăzi, 25 Iunie, Marţi

    Timp Temperatura Precipitaţii Vânt Presiune Umiditate
    00:00 +20°C° 0 mm 1 m/s 741 mmHg 91%
    01:00 +19°C° 0 mm 1 m/s 741 mmHg 91%
    02:00 +19°C° 0 mm 1 m/s 741 mmHg 91%
    03:00 +19°C° 0 mm 1 m/s 741 mmHg 92%
    04:00 +18°C° 0 mm 1 m/s 740 mmHg 92%
    05:00 +20°C° 0 mm 1 m/s 741 mmHg 87%
    06:00 +22°C° 0 mm 1 m/s 741 mmHg 83%
    07:00 +24°C° 0 mm 1 m/s 741 mmHg 77%
    08:00 +26°C° 0 mm 2 m/s 741 mmHg 71%
    09:00 +27°C° 0 mm 2 m/s 741 mmHg 64%
    10:00 +29°C° 0 mm 3 m/s 742 mmHg 58%
    11:00 +31°C° 0 mm 3 m/s 742 mmHg 54%
    12:00 +33°C° 0 mm 3 m/s 742 mmHg 51%
    13:00 +34°C° 0 mm 4 m/s 742 mmHg 48%
    14:00 +34°C° 0 mm 4 m/s 742 mmHg 49%
    15:00 +34°C° 0 mm 3 m/s 741 mmHg 50%
    16:00 +34°C° 0 mm 3 m/s 741 mmHg 51%
    17:00 +31°C° 0 mm 3 m/s 741 mmHg 59%
    18:00 +29°C° 0 mm 3 m/s 741 mmHg 66%
    19:00 +27°C° 0 mm 2 m/s 742 mmHg 73%
    20:00 +26°C° 0 mm 2 m/s 742 mmHg 78%
    21:00 +24°C° 0 mm 2 m/s 742 mmHg 82%
    22:00 +23°C° 0 mm 2 m/s 742 mmHg 86%
    23:00 +22°C° 0 mm 1 m/s 742 mmHg 88%

    Mâine, 26 Iunie, Miercuri

    Timp Temperatura Precipitaţii Vânt Presiune Umiditate
    00:00 +22°C° 0 mm 1 m/s 742 mmHg 90%
    01:00 +21°C° 0 mm 1 m/s 743 mmHg 92%
    02:00 +21°C° 0 mm 1 m/s 742 mmHg 92%
    03:00 +21°C° 0 mm 1 m/s 742 mmHg 93%
    04:00 +20°C° 0 mm 1 m/s 742 mmHg 93%
    05:00 +22°C° 0 mm 1 m/s 742 mmHg 87%
    06:00 +22°C° 0 mm 0 m/s 742 mmHg 81%
    07:00 +24°C° 0 mm 0 m/s 743 mmHg 76%
    08:00 +26°C° 0 mm 0 m/s 743 mmHg 70%
    09:00 +30°C° 0 mm 1 m/s 743 mmHg 63%
    10:00 +32°C° 0 mm 1 m/s 743 mmHg 57%
    11:00 +33°C° 0 mm 1 m/s 742 mmHg 54%
    12:00 +34°C° 0 mm 1 m/s 742 mmHg 51%
    13:00 +34°C° 0 mm 1 m/s 742 mmHg 47%
    14:00 +34°C° 0 mm 1 m/s 742 mmHg 46%
    15:00 +34°C° 0 mm 1 m/s 742 mmHg 45%
    16:00 +34°C° 0 mm 1 m/s 741 mmHg 44%
    17:00 +33°C° 0 mm 1 m/s 741 mmHg 53%
    18:00 +29°C° 0 mm 0 m/s 741 mmHg 61%
    19:00 +27°C° 0 mm 0 m/s 741 mmHg 70%
    20:00 +26°C° 0 mm 0 m/s 741 mmHg 71%
    21:00 +26°C° 0 mm 1 m/s 741 mmHg 72%
    22:00 +25°C° 0 mm 1 m/s 741 mmHg 73%
    23:00 +25°C° 0 mm 1 m/s 741 mmHg 72%

    Poimâine, 27 Iunie, Joi

    Timp Temperatura Precipitaţii Vânt Presiune Umiditate
    00:00 +25°C° 0 mm 1 m/s 741 mmHg 71%
    01:00 +25°C° 0 mm 2 m/s 741 mmHg 70%
    02:00 +24°C° 0 mm 2 m/s 740 mmHg 71%
    03:00 +24°C° 0 mm 2 m/s 740 mmHg 72%
    04:00 +23°C° 0 mm 2 m/s 740 mmHg 73%
    05:00 +25°C° 0 mm 2 m/s 740 mmHg 72%
    06:00 +26°C° 0 mm 1 m/s 740 mmHg 72%
    07:00 +27°C° 0 mm 1 m/s 740 mmHg 71%
    08:00 +28°C° 0 mm 1 m/s 740 mmHg 69%
    09:00 +29°C° 0 mm 2 m/s 740 mmHg 66%
    10:00 +31°C° 0 mm 2 m/s 740 mmHg 64%
    11:00 +30°C° 1.3 mm 2 m/s 739 mmHg 67%
    12:00 +30°C° 1.3 mm 2 m/s 739 mmHg 71%
    13:00 +30°C° 1.3 mm 2 m/s 739 mmHg 75%
    14:00 +30°C° 1.9 mm 2 m/s 739 mmHg 77%
    15:00 +29°C° 1.9 mm 2 m/s 739 mmHg 79%
    16:00 +28°C° 1.9 mm 2 m/s 738 mmHg 82%
    17:00 +27°C° 0.6 mm 2 m/s 738 mmHg 82%
    18:00 +26°C° 0.6 mm 2 m/s 738 mmHg 82%
    19:00 +24°C° 0.6 mm 2 m/s 738 mmHg 82%
    20:00 +23°C° 0 mm 1 m/s 739 mmHg 80%
    21:00 +22°C° 0 mm 1 m/s 739 mmHg 79%
    22:00 +18°C° 0 mm 0 m/s 740 mmHg 77%
    23:00 +19°C° 0 mm 1 m/s 740 mmHg 78%

    28 Iunie, Vineri

    Timp Temperatura Precipitaţii Vânt Presiune Umiditate
    00:00 +18°C° 0 mm 1 m/s 740 mmHg 79%
    01:00 +15°C° 0 mm 1 m/s 740 mmHg 79%
    02:00 +15°C° 0 mm 1 m/s 740 mmHg 80%
    03:00 +14°C° 0 mm 1 m/s 740 mmHg 82%
    04:00 +14°C° 0 mm 1 m/s 740 mmHg 83%
    05:00 +16°C° 0 mm 1 m/s 740 mmHg 79%
    06:00 +18°C° 0 mm 1 m/s 740 mmHg 75%
    07:00 +20°C° 0 mm 1 m/s 740 mmHg 72%
    08:00 +21°C° 0 mm 1 m/s 740 mmHg 65%
    09:00 +23°C° 0 mm 1 m/s 740 mmHg 58%
    10:00 +25°C° 0 mm 1 m/s 740 mmHg 50%
    11:00 +25°C° 0 mm 1 m/s 740 mmHg 49%
    12:00 +26°C° 0 mm 1 m/s 739 mmHg 47%
    13:00 +27°C° 0 mm 2 m/s 739 mmHg 45%
    14:00 +27°C° 0 mm 2 m/s 739 mmHg 46%
    15:00 +27°C° 0 mm 2 m/s 739 mmHg 47%
    16:00 +27°C° 0 mm 2 m/s 738 mmHg 48%
    17:00 +26°C° 0 mm 2 m/s 739 mmHg 56%
    18:00 +24°C° 0 mm 2 m/s 739 mmHg 65%
    19:00 +22°C° 0 mm 1 m/s 739 mmHg 73%
    20:00 +21°C° 0 mm 1 m/s 739 mmHg 75%
    21:00 +20°C° 0 mm 1 m/s 740 mmHg 77%
    22:00 +18°C° 0 mm 1 m/s 740 mmHg 79%
    23:00 +16°C° 0 mm 1 m/s 740 mmHg 81%

    29 Iunie, Sâmbătă

    Timp Temperatura Precipitaţii Vânt Presiune Umiditate
    00:00 +16°C° 0 mm 1 m/s 740 mmHg 84%
    01:00 +14°C° 0 mm 0 m/s 740 mmHg 86%
    02:00 +14°C° 0 mm 0 m/s 740 mmHg 88%
    03:00 +14°C° 0 mm 1 m/s 740 mmHg 89%
    04:00 +14°C° 0 mm 1 m/s 740 mmHg 90%
    05:00 +15°C° 0 mm 1 m/s 740 mmHg 85%
    06:00 +18°C° 0 mm 1 m/s 740 mmHg 80%
    07:00 +19°C° 0 mm 2 m/s 740 mmHg 75%
    08:00 +20°C° 0 mm 2 m/s 740 mmHg 68%
    09:00 +21°C° 0 mm 3 m/s 740 mmHg 62%
    10:00 +22°C° 0 mm 3 m/s 741 mmHg 55%
    11:00 +24°C° 0 mm 3 m/s 740 mmHg 52%
    12:00 +25°C° 0 mm 4 m/s 740 mmHg 48%
    13:00 +25°C° 0 mm 4 m/s 740 mmHg 44%
    14:00 +26°C° 0 mm 4 m/s 739 mmHg 45%
    15:00 +26°C° 0 mm 4 m/s 739 mmHg 47%
    16:00 +26°C° 0 mm 3 m/s 739 mmHg 48%
    17:00 +24°C° 0 mm 3 m/s 739 mmHg 56%
    18:00 +22°C° 0 mm 3 m/s 739 mmHg 64%
    19:00 +20°C° 0 mm 2 m/s 739 mmHg 72%
    20:00 +19°C° 0 mm 2 m/s 739 mmHg 73%
    21:00 +18°C° 0 mm 2 m/s 739 mmHg 75%
    22:00 +16°C° 0 mm 2 m/s 739 mmHg 76%
    23:00 +16°C° 0 mm 2 m/s 739 mmHg 78%

    30 Iunie, Duminică

    Timp Temperatura Precipitaţii Vânt Presiune Umiditate
    00:00 +15°C° 0 mm 1 m/s 739 mmHg 79%
    01:00 +15°C° 0 mm 1 m/s 738 mmHg 80%
    02:00 +15°C° 0 mm 1 m/s 738 mmHg 80%
    03:00 +14°C° 0 mm 1 m/s 738 mmHg 81%
    04:00 +14°C° 0 mm 1 m/s 738 mmHg 81%
    05:00 +16°C° 0 mm 1 m/s 738 mmHg 77%
    06:00 +19°C° 0 mm 1 m/s 738 mmHg 72%
    07:00 +21°C° 0 mm 1 m/s 738 mmHg 67%
    08:00 +24°C° 0 mm 1 m/s 738 mmHg 61%
    09:00 +26°C° 0 mm 1 m/s 738 mmHg 55%
    10:00 +29°C° 0 mm 1 m/s 738 mmHg 50%
    11:00 +30°C° 0 mm 1 m/s 738 mmHg 47%
    12:00 +32°C° 0 mm 1 m/s 737 mmHg 45%
    13:00 +33°C° 0 mm 1 m/s 737 mmHg 42%
    14:00 +34°C° 0 mm 2 m/s 737 mmHg 43%
    15:00 +34°C° 0 mm 2 m/s 737 mmHg 45%
    16:00 +34°C° 0 mm 2 m/s 736 mmHg 46%
    17:00 +32°C° 0 mm 2 m/s 736 mmHg 55%
    18:00 +30°C° 0 mm 2 m/s 736 mmHg 63%
    19:00 +28°C° 0 mm 1 m/s 736 mmHg 72%
    20:00 +27°C° 0 mm 1 m/s 736 mmHg 74%
    21:00 +26°C° 0 mm 2 m/s 737 mmHg 75%
    22:00 +24°C° 0 mm 2 m/s 737 mmHg 77%
    23:00 +24°C° 0 mm 2 m/s 737 mmHg 78%
    Arată mai mult